DW9556 Weather Reports


time (UTC)temp
C
wind
direction
speed
KPH
gust
KPH
rain 1hr
cm
rain 24hr
cm
rain mn
cm
humidity
%
barometer
mb
20260906121530 20 71 0.0 0.0 0.00 0.00 0.00 77 1016.4
20260906120014 20 47 0.0 0.0 0.00 0.00 0.00 77 1016.0
20260906114610 20 54 0.0 0.0 0.00 0.00 0.00 77 1015.8
20260906113057 20 52 0.0 0.0 0.00 0.00 0.00 78 1015.6
20260906111533 20 53 0.0 0.0 0.00 0.00 0.00 78 1015.5
20260906110031 20 53 0.0 0.0 0.00 0.00 0.00 78 1015.2
20260906104513 20 22 0.0 0.0 0.00 0.00 0.00 79 1015.0
20260906103009 21 22 0.0 0.0 0.00 0.00 0.00 79 1014.9
20260906101552 21 22 0.0 0.0 0.00 0.00 0.00 79 1014.7
20260906100048 21 21 0.0 0.0 0.00 0.00 0.00 79 1014.7
20260906094532 21 11 0.0 0.0 0.00 0.00 0.00 79 1014.5
20260906093027 21 9 0.0 0.0 0.00 0.00 0.00 80 1014.4
20260906091520 21 76 0.0 0.0 0.00 0.00 0.00 80 1014.3
20260906090007 21 72 0.0 0.0 0.00 0.00 0.00 80 1014.4
20260906084547 22 84 0.0 0.0 0.00 0.00 0.00 80 1014.3
20260906083048 22 84 0.0 0.0 0.00 0.00 0.00 80 1014.4
20260906081538 22 59 0.0 0.0 0.00 0.00 0.00 80 1014.4
20260906080025 22 13 0.0 0.0 0.00 0.00 0.00 80 1014.5
20260906074510 22 340 0.0 0.0 0.00 0.00 0.00 80 1014.4
20260906073006 22 304 0.0 0.0 0.00 0.00 0.00 80 1014.4
20260906071548 22 76 0.0 0.0 0.00 0.00 0.00 80 1014.6
20260906070048 22 9 0.0 0.0 0.00 0.00 0.00 80 1014.6
20260906064530 22 351 0.0 0.0 0.00 0.00 0.00 80 1014.7
20260906063029 22 14 0.0 0.0 0.00 0.00 0.00 80 1014.6
20260906061511 22 346 0.0 0.0 0.00 0.00 0.00 80 1014.5
20260906060016 22 13 0.0 0.0 0.00 0.00 0.00 80 1014.4
20260906054551 22 35 0.0 0.0 0.00 0.00 0.00 80 1014.5
20260906053050 22 342 0.0 0.0 0.00 0.00 0.00 80 1014.4
20260906051532 22 321 0.0 0.0 0.00 0.00 0.00 79 1014.3
20260906050040 22 329 0.0 0.0 0.00 0.00 0.00 79 1014.1
20260906044518 23 347 0.0 0.0 0.00 0.00 0.00 79 1013.8
20260906043010 23 16 0.0 0.0 0.00 0.00 0.00 79 1013.7
20260906041552 22 71 0.0 0.0 0.00 0.00 0.00 79 1013.7
20260906040051 22 71 0.0 0.0 0.00 0.00 0.00 79 1013.6
20260906034534 22 65 0.0 0.0 0.00 0.00 0.00 79 1013.6
20260906033044 22 105 0.0 0.0 0.00 0.00 0.00 79 1013.6
20260906031515 22 304 0.0 0.0 0.00 0.00 0.00 79 1013.7
20260906030015 22 71 0.0 0.0 0.00 0.00 0.00 78 1013.7
20260906024556 22 254 0.0 0.0 0.00 0.00 0.00 78 1013.6
20260906023055 23 88 0.0 0.0 0.00 0.00 0.00 79 1013.5
20260906021535 23 99 0.0 0.0 0.00 0.00 0.00 79 1013.4
20260906020033 23 101 0.0 0.0 0.00 0.00 0.00 79 1013.1
20260906014513 23 99 0.0 0.0 0.00 0.00 0.00 78 1013.1
20260906013013 24 90 0.0 0.0 0.00 0.00 0.00 78 1012.9
20260906011551 25 105 0.0 0.0 0.00 0.00 0.00 77 1012.8
20260906010050 25 31 0.0 0.0 0.00 0.00 0.00 76 1012.7
20260906004531 25 53 0.0 0.0 0.00 0.00 0.00 75 1012.6
20260906003031 26 335 0.0 0.0 0.00 0.00 0.00 75 1012.6
20260906001511 26 76 0.0 0.0 0.00 0.00 0.00 74 1012.3
20260906000010 26 14 0.0 0.0 0.00 0.00 0.00 74 1012.1
20260905234553 27 103 0.0 0.0 0.00 0.00 0.00 73 1012.0
20260905233051 27 120 0.0 0.0 0.00 0.00 0.00 72 1012.1
20260905231533 27 82 0.0 0.0 0.00 0.00 0.00 71 1012.0
20260905230036 28 30 0.0 0.0 0.00 0.00 0.00 71 1011.9
20260905224520 28 123 0.0 0.0 0.00 0.00 0.00 70 1011.6
20260905223014 29 9 0.0 0.0 0.00 0.00 0.00 69 1011.7
20260905221614 30 327 0.0 0.0 0.00 0.00 0.00 68 1011.3
20260905220106 30 100 0.0 0.0 0.00 0.00 0.00 67 1011.3
20260905214556 30 67 0.0 0.0 0.00 0.00 0.00 66 1011.3
20260905213038 31 317 0.0 0.0 0.00 0.00 0.00 65 1011.0
20260905211537 31 96 0.0 0.0 0.00 0.00 0.00 64 1010.9
20260905210019 32 107 0.0 0.0 0.00 0.00 0.00 63 1010.8
20260905204520 32 326 0.0 0.0 0.00 0.00 0.00 62 1010.9
20260905203001 32 321 0.0 0.0 0.00 0.00 0.00 63 1011.1
20260905201601 32 336 0.0 0.0 0.00 0.00 0.00 64 1010.9
20260905201500 32 309 0.0 0.0 0.00 0.00 0.00 64 1011.0
20260905200053 32 28 0.0 0.0 0.00 0.00 0.00 64 1010.9
20260905194542 32 344 0.0 0.0 0.00 0.00 0.00 63 1010.9
20260905193029 32 324 0.0 0.0 0.00 0.00 0.00 65 1011.0
20260905191529 32 333 0.0 0.0 0.00 0.00 0.00 64 1011.1
20260905190028 32 338 0.0 0.0 0.00 0.00 0.00 64 1011.2
20260905184531 32 342 0.0 0.0 0.00 0.00 0.00 64 1011.4
20260905183025 32 74 0.0 0.0 0.00 0.00 0.00 66 1011.5
20260905181526 32 325 0.0 0.0 0.00 0.00 0.00 67 1011.6
20260905180026 31 48 0.0 0.0 0.00 0.00 0.00 68 1011.5
20260905174534 31 335 0.0 0.0 0.00 0.00 0.00 69 1011.6
20260905173027 32 342 0.0 0.0 0.00 0.00 0.00 68 1011.7
20260905171535 32 343 0.0 0.0 0.00 0.00 0.00 67 1011.7
20260905170003 32 336 0.0 0.0 0.00 0.00 0.00 68 1011.8
20260905164602 32 115 0.0 0.0 0.00 0.00 0.00 68 1011.9
20260905163040 31 293 0.0 0.0 0.00 0.00 0.00 70 1011.9
20260905161537 31 291 0.0 0.0 0.00 0.00 0.00 69 1011.9
20260905160026 31 305 0.0 0.0 0.00 0.00 0.00 70 1011.7
20260905154516 31 328 0.0 0.0 0.00 0.00 0.00 71 1011.8
20260905153057 31 336 0.0 0.0 0.00 0.00 0.00 73 1011.7
20260905151603 30 112 0.0 0.0 0.00 0.00 0.00 74 1011.5
20260905150037 30 82 0.0 0.0 0.00 0.00 0.00 73 1011.5
20260905144534 30 84 0.0 0.0 0.00 0.00 0.00 75 1011.5
20260905143014 29 350 0.0 0.0 0.00 0.00 0.00 75 1011.4
20260905141511 28 337 0.0 0.0 0.00 0.00 0.00 76 1011.3
20260905140050 28 341 0.0 0.0 0.00 0.00 0.00 77 1011.1
20260905134546 27 290 0.0 0.0 0.00 0.00 0.00 77 1011.4
20260905133025 27 355 0.0 0.0 0.00 0.00 0.00 77 1011.6
20260905131521 27 184 0.0 0.0 0.00 0.00 0.00 78 1011.3
20260905130101 26 277 0.0 0.0 0.00 0.00 0.00 78 1011.1
20260905124558 26 278 0.0 0.0 0.00 0.00 0.00 79 1011.2
20260905123038 25 278 0.0 0.0 0.00 0.00 0.00 79 1011.2